Regional Weather Roundup
Issued by NWS

Home | Current Version | Previous Version | Text Only | Print | Product List | Glossary On
Versions: 1 2 3 4 5 6 7 8 9 10 11 12 13 14 15 16 17 18 19 20 21 22 23 24 25 26 27 28 29 30 31 32 33 34 35 36 37 38 39 40 41 42 43 44 45 46 47 48 49 50
000
ASUS43 KMKX 021221
RWRWI

WISCONSIN REGIONAL WEATHER ROUNDUP
NATIONAL WEATHER SERVICE MILWAUKEE/SULLIVAN WI
700 AM CDT TUE JUN 02 2015

NOTE: "FAIR" INDICATES FEW OR NO CLOUDS BELOW 12,000 FEET WITH NO
SIGNIFICANT WEATHER AND/OR OBSTRUCTIONS TO VISIBILITY.

WIZ001-002-006>008-014>016-023>028-021300-
NORTHWEST WISCONSIN

CITY           SKY/WX    TMP DP  RH WIND       PRES   REMARKS
SUPERIOR ARPT  SUNNY     44  39  83 NE6       30.09F
6HR MIN TEMP:  40; 6HR MAX TEMP:  44;

ASHLAND        CLOUDY    52  39  61 S6        30.13S
6HR MIN TEMP:  35; 6HR MAX TEMP:  52;

HAYWARD        PTSUNNY   52  36  54 S7        30.13S
6HR MIN TEMP:  50; 6HR MAX TEMP:  55;

SIREN          MOSUNNY   54  40  59 S8        30.08F
6HR MIN TEMP:  50; 6HR MAX TEMP:  54;

CUMBERLAND     SUNNY     48  37  66 SE8       30.11F
RICE LAKE      SUNNY     51  39  63 SE7       30.14F
6HR MIN TEMP:  49; 6HR MAX TEMP:  53;

CHETEK         SUNNY     49  41  72 SE7       30.13F
6HR MIN TEMP:  45; 6HR MAX TEMP:  50;

LADYSMITH      SUNNY     48  40  73 SE6       30.17F
6HR MIN TEMP:  44; 6HR MAX TEMP:  49;

EAU CLAIRE     SUNNY     51  37  58 S9        30.14F
6HR MIN TEMP:  47; 6HR MAX TEMP:  51;

MENOMONIE      SUNNY     51  41  69 SE6       30.14S
6HR MIN TEMP:  47; 6HR MAX TEMP:  53;

NEW RICHMOND   MOSUNNY   55  42  62 SE7       30.10F
6HR MIN TEMP:  51; 6HR MAX TEMP:  55;

OSCEOLA        MOSUNNY   55  43  63 SE8       30.12S
6HR MIN TEMP:  50; 6HR MAX TEMP:  55;

$$

WIZ003>005-009-010-017-018-021300-
NORTH CENTRAL WISCONSIN

CITY           SKY/WX    TMP DP  RH WIND       PRES   REMARKS
MANITOWISH WTR MOSUNNY   48  41  75 S3        30.17S
6HR MIN TEMP:  41; 6HR MAX TEMP:  48;

ARBOR VITAE    MOSUNNY   52  42  68 S5        30.17F
6HR MIN TEMP:  45; 6HR MAX TEMP:  52;

WOODRUFF       MOSUNNY   52  42  68 S5        30.17F
6HR MIN TEMP:  45; 6HR MAX TEMP:  52;

RHINELANDER    SUNNY     45  39  79 CALM      30.19F
6HR MIN TEMP:  35; 6HR MAX TEMP:  45;

EAGLE RIVER    MOSUNNY   46  37  70 S6        30.18F
6HR MIN TEMP:  33; 6HR MAX TEMP:  46;

LAND O LAKES   MOSUNNY   44  40  87 CALM      30.19F
6HR MIN TEMP:  32; 6HR MAX TEMP:  44;

PHILLIPS       MOSUNNY   49  37  64 S5        30.16F
6HR MIN TEMP:  43; 6HR MAX TEMP:  49;

TOMAHAWK       SUNNY     43  42  95 CALM      30.19F
6HR MIN TEMP:  33; 6HR MAX TEMP:  43;

MEDFORD        SUNNY     47  38  72 S6        30.18S
6HR MIN TEMP:  43; 6HR MAX TEMP:  47;

MERRILL        SUNNY     42  40  94 CALM      30.21S
$$

WIZ029-030-035-036-043>047-021300-
CENTRAL WISCONSIN

CITY           SKY/WX    TMP DP  RH WIND       PRES   REMARKS
WAUSAU         SUNNY     46  40  79 E3        30.19R
6HR MIN TEMP:  40; 6HR MAX TEMP:  48;

MOSINEE        SUNNY     46  43  87 S3        30.21R
MARSHFIELD     SUNNY     48  39  71 S7        30.19R
6HR MIN TEMP:  43; 6HR MAX TEMP:  50;

STEVENS POINT  SUNNY     43  39  88 CALM      30.21R
6HR MIN TEMP:  35; 6HR MAX TEMP:  43;

WAUPACA        SUNNY     46  46  97 CALM      30.22R
6HR MIN TEMP:  40; 6HR MAX TEMP:  46;

WAUTOMA        SUNNY     44  41  89 CALM      30.21S
6HR MIN TEMP:  37; 6HR MAX TEMP:  44;

WISC RAPIDS    SUNNY     49  37  63 S3        30.21R
6HR MIN TEMP:  39; 6HR MAX TEMP:  49;

CAMP DOUGLAS   MOSUNNY   43  43 100 E2        30.19S
$$

WIZ011>013-019>022-031-037>040-048>050-021300-
NORTHEAST WISCONSIN

CITY           SKY/WX    TMP DP  RH WIND       PRES   REMARKS
ANTIGO         SUNNY     46  40  80 CALM      30.20S
SHAWANO        SUNNY     49  46  90 CALM      30.22S
OCONTO         SUNNY     45  45 100 CALM      30.21F
STURGEON BAY   SUNNY     48  39  71 CALM      30.25R
6HR MIN TEMP:  39; 6HR MAX TEMP:  48;

GREEN BAY      SUNNY     48  43  82 CALM      30.22R
6HR MIN TEMP:  41; 6HR MAX TEMP:  48;

MANITOWOC      SUNNY     48  41  76 CALM      30.23R
6HR MIN TEMP:  39; 6HR MAX TEMP:  48; 6HR PCP:  0.01;

APPLETON       MOSUNNY   48  39  71 VRB3      30.21R
CLINTONVILLE   SUNNY     45  43  93 CALM      30.21S
OSHKOSH        SUNNY     50  42  74 S3        30.20S
6HR MIN TEMP:  40; 6HR MAX TEMP:  50;

$$

WIZ032>034-041-042-053>061-021300-
SOUTHWEST WISCONSIN

CITY           SKY/WX    TMP DP  RH WIND       PRES   REMARKS
LA CROSSE      MOSUNNY   53  40  61 SE8       30.17S
6HR MIN TEMP:  50; 6HR MAX TEMP:  56;

SPARTA         SUNNY     46  40  80 CALM      30.19S
6HR MIN TEMP:  35; 6HR MAX TEMP:  46;

VIROQUA        MOSUNNY   48  37  66 SE9       30.19R
6HR MIN TEMP:  45; 6HR MAX TEMP:  50;

BOSCOBEL       SUNNY     48  44  86 NE3       30.20S
6HR MIN TEMP:  39; 6HR MAX TEMP:  48;

PRAIRIE DU CHI MOSUNNY   50  40  70 E3        30.18R
6HR MIN TEMP:  46; 6HR MAX TEMP:  54;

PLATTEVILLE    SUNNY     48  40  74 E7        30.19S
6HR MIN TEMP:  44; 6HR MAX TEMP:  50;

$$

WIZ056-057-062-063-064-067-068-021300-
SOUTH CENTRAL WISCONSIN

CITY           SKY/WX    TMP DP  RH WIND       PRES   REMARKS
REEDSBURG      SUNNY     42  41  96 CALM      30.20R
6HR MIN TEMP:  37; 6HR MAX TEMP:  45;

BARABOO/DELLS  SUNNY     47  41  81 CALM      30.20S
6HR MIN TEMP:  37; 6HR MAX TEMP:  47;

LONE ROCK      MOSUNNY   46  41  82 E5        30.21S
6HR MIN TEMP:  41; 6HR MAX TEMP:  48;

MINERAL POINT  SUNNY     48  37  66 SE6       30.19S
MADISON        MOSUNNY   47  40  76 CALM      30.20F
6HR MIN TEMP:  38; 6HR MAX TEMP:  49;

MIDDLETON      SUNNY     47  44  87 CALM      30.21R
6HR MIN TEMP:  40; 6HR MAX TEMP:  49;

WATERTOWN      MOSUNNY   46  43  89 CALM      30.20F
6HR MIN TEMP:  38; 6HR MAX TEMP:  46;

MONROE         MOSUNNY   46  37  71 CALM      30.21R
JANESVILLE     PTSUNNY   46  43  87 CALM      30.19S
$$

WIZ051-052-058>065-066-070>072-021300-
SOUTHEAST WISCONSIN

CITY           SKY/WX    TMP DP  RH WIND       PRES   REMARKS
MILWAUKEE      MOSUNNY   50  39  66 CALM      30.22R
6HR MIN TEMP:  41; 6HR MAX TEMP:  50;

WAUKESHA       SUNNY     45  37  76 CALM      30.23S
MILWAUKEE/TIMM SUNNY     45  37  76 CALM      30.23S
RACINE         SUNNY     48  42  80 CALM      30.24R
6HR MIN TEMP:  40; 6HR MAX TEMP:  48;

BURLINGTON     SUNNY     42  40  92 CALM      30.21S
6HR MIN TEMP:  34; 6HR MAX TEMP:  42;

KENOSHA          N/A     48  41  76 MISG      30.22R
6HR MIN TEMP:  36; 6HR MAX TEMP:  48;

FOND DU LAC    SUNNY     47  43  86 CALM      30.21S
6HR MIN TEMP:  39; 6HR MAX TEMP:  47;

SHEBOYGAN      SUNNY     46  42  86 CALM      30.22S
6HR MIN TEMP:  37; 6HR MAX TEMP:  46;

WEST BEND      SUNNY     45  39  81 CALM      30.22S
JUNEAU         SUNNY     48  39  72 CALM      30.22S
6HR MIN TEMP:  39; 6HR MAX TEMP:  48;

$$

LSZ147-162-021300-
LAKE SUPERIOR

STATION/POSITION TIME  TEMP    WIND        PRES    WAVE
                       AIR SEA DIR/SP/G            HT/PER
                 (UTC) (F)     (DEG/KT/KT) (MB)    (FT/S)
W MID LAKE BUOY  1150   42 37  150/  6/  8   N/A     1
DEVILS ISLAND    1200   53     190/  5/  6   N/A
PORT WING        1100   42      40/  1/  2   N/A
SAXON HARBOR     1100   53     190/  5/ 11   N/A
$$

LMZ867-665-643>646-021300-
LAKE MICHIGAN

STATION/POSITION TIME  TEMP    WIND        PRES    WAVE
                       AIR SEA DIR/SP/G            HT/PER
                 (UTC) (F)     (DEG/KT/KT) (MB)    (FT/S)
CHAMBERS ISLAND  1100   43      CALM  /  2   N/A
N MID LAKE BUOY  1150   43 37  160/  4/  6   N/A     0
NORTHPORT PIER   1100   49      CALM  / 12   N/A
SISTER BAY       1148   50        CALM       N/A



USA.gov is the U.S. government's official web portal to all federal, state and local government web resources and services.